{"data":{"norad_id":47368,"epoch":"2026-05-25T01:55:15.457728Z","epoch_age_seconds":65160,"freshness":"FRESH","line1":"1 47368U 21005V   26145.08004002  .00004089  00000+0  14342-3 0  9995","line2":"2 47368  53.1596  67.2141 0001288  74.8192 285.2952 15.31708769294735","mean_motion":15.31708769,"eccentricity":0.0001288,"inclination_deg":53.1596,"raan_deg":67.2141,"arg_perigee_deg":74.8192,"mean_anomaly_deg":285.2952,"bstar":0.00014342,"rev_number":29473,"period_min":94.012649737595,"perigee_km":469.83172342748,"apogee_km":471.59598740784,"semimajor_km":6848.8508554177,"source":"CELESTRAK","updated_at":"2026-05-25T13:38:16.526427Z"}}